Flag for Switzerland Weather past 2 weeks in Biel, Switzerland

Now
89 °F

Hot.


Feels Like: 88 °F
Forecast: 63 / 88 °F
Wind: 6 mph from East

Location: Grenchen

Current Time: Aug 29, 2015 at 7:20:54 PM

Latest Report: Aug 29, 2015 at 6:00 PM


Visibility: N/A

Pressure: 30.02 "Hg

Humidity: 36%

Dew point: 59 °F

Location of BielLocation

Historic Weather in Biel — Graph

°F

Biel temperature yesterday

Maximum temperature yesterday: 86 °F (at 5:00 PM)
Minimum temperature yesterday: 62 °F (at 7:00 AM)
Average temperature yesterday: 73 °F

Past Weeks' High & Low Weather Summary

 TemperatureHumidityPressure
High89 °F (Aug 29, 5:00 PM)100% (Aug 15, 3:00 AM)30.27 "Hg (Aug 15, 3:00 AM)
Low47 °F (Aug 26, 6:00 AM)30% (Aug 25, 4:00 PM)29.73 "Hg (Aug 24, 7:00 AM)
Average64 °F73%30.01 "Hg
* Reported Aug 14 6:00 PM — Aug 29 6:00 PM, Biel, Weather by CustomWeather, © 2015

Note: Actual official high and low records may vary slightly from our data, if they occured in-between our weather recording intervals... More about our weather records

Advertising

Biel weather history for previous 24 hours

 ConditionsComfort  
Time TempWeatherWind HumidityBarometerVisibility
6:00 PM
Sat, Aug 29
89 °FHot.6 mph36%30.02 "HgN/A
5:00 PM89 °FHot.8 mph34%30.02 "HgN/A
4:00 PM89 °FHot.6 mph37%30.04 "HgN/A
3:00 PM87 °FWarm.5 mph43%30.07 "HgN/A
1:00 PM82 °FWarm.3 mph50%30.13 "HgN/A
12:00 PM79 °FWarm.3 mph56%30.16 "HgN/A
10:00 AM72 °FMild.2 mph71%30.18 "HgN/A
9:00 AM66 °FMild.1 mph88%30.19 "HgN/A
7:00 AM59 °FCool.No wind98%30.20 "HgN/A
4:00 AM61 °FCool.1 mph96%30.18 "HgN/A
3:00 AM62 °FCool.1 mph94%30.17 "HgN/A
2:00 AM63 °FMild.1 mph92%30.17 "HgN/A
1:00 AM64 °FMild.1 mph88%30.16 "HgN/A
11:00 PM
Fri, Aug 28
67 °FMild.3 mph85%30.14 "HgN/A
10:00 PM72 °FMild.3 mph71%30.11 "HgN/A
9:00 PM74 °FMild.1 mph67%30.08 "HgN/A
8:00 PM77 °FWarm.3 mph62%30.05 "HgN/A
7:00 PM83 °FWarm.6 mph44%30.03 "HgN/A
Weather by CustomWeather, © 2015

See weather overviewHow to use our weather pages